Regional Weather Roundup
Issued by NWS

Home | Current Version | Previous Version | Graphics & Text | Print | Product List | Glossary On
Versions: 1 2 3 4 5 6 7 8 9 10 11 12 13 14 15 16 17 18 19 20 21 22 23 24 25 26 27 28 29 30 31 32 33 34 35 36 37 38 39 40 41 42 43 44 45 46 47 48 49 50
000
ASUS43 KFSD 171610
RWRSD

WEATHER ROUNDUP FOR SOUTH DAKOTA
NATIONAL WEATHER SERVICE SIOUX FALLS SD
1100 AM CDT WED SEP 17 2014

NOTE: "FAIR" INDICATES FEW OR NO CLOUDS BELOW 12,000 FEET WITH NO
SIGNIFICANT WEATHER AND/OR OBSTRUCTIONS TO VISIBILITY.


SDZ001>005-009-010-012>017-171700-
NORTHWEST AND NORTH CENTRAL SOUTH DAKOTA

CITY           SKY/WX    TMP DP  RH WIND       PRES   REMARKS
BUFFALO          N/A     66  51  58 E8        29.90S
FAITH            N/A     66  53  63 E10       29.96S
MOBRIDGE       SUNNY     68  55  63 E7        29.94S
$$

SDZ012>016-024>037-041>051-057-063-072>074-171700-
SOUTHWEST AND SOUTH CENTRAL SOUTH DAKOTA

CITY           SKY/WX    TMP DP  RH WIND       PRES   REMARKS
RAPID CTY ARPT MOSUNNY   70  47  43 N7        29.98R
PIERRE         SUNNY     70  57  63 MISG      29.93R
CUSTER         MOSUNNY   72  34  24 E5        30.09S
ELLSWORTH AFB  SUNNY     69  47  45 NE1       29.98R
PHILIP         SUNNY     66  55  67 E7        29.94S
PINE RIDGE     MOSUNNY   67  54  63 SW3       29.99R
WINNER         FAIR      71  58  63 E6        29.94R
$$

SDZ004>011-016>023-039-040-171700-
NORTHEAST SOUTH DAKOTA

CITY           SKY/WX    TMP DP  RH WIND       PRES   REMARKS
ABERDEEN       SUNNY     62  53  72 NE7       29.96S
WATERTOWN      SUNNY     66  54  65 N8        29.95R
SISSETON         N/A     67  54  63 N12       29.94R
$$

SDZ017-020-022-023-036>040-048>070-171700-
SOUTHEAST SOUTH DAKOTA

CITY           SKY/WX    TMP DP  RH WIND       PRES   REMARKS
SIOUX FALLS    MOSUNNY   66  55  67 NE5       29.94R
HURON          SUNNY     64  55  72 CALM      29.94S
CHAMBERLAIN    SUNNY     63  58  84 E7        29.95R
MITCHELL       SUNNY     65  57  75 N3        29.94S
YANKTON        SUNNY     64  57  77 N5        29.93S
$$

ABBREVIATIONS USED IN REMARKS
   TC - TEMPERATURE IN CELSIUS
  WCI - WIND CHILL INDEX
   HX - HEAT INDEX
  VSB - VISIBILITY



USA.gov is the U.S. government's official web portal to all federal, state and local government web resources and services.